Regional Weather Roundup
Issued by NWS

Home | Current Version | Previous Version | Text Only | Print | Product List | Glossary On
Versions: 1 2 3 4 5 6 7 8 9 10 11 12 13 14 15 16 17 18 19 20 21 22 23 24 25 26 27 28
000
ASUS44 KLIX 221113
RWRLA
LOUISIANA WEATHER ROUNDUP
NATIONAL WEATHER SERVICE NEW ORLEANS LA
600 AM CDT SUN OCT 22 2017

NOTE: "FAIR" INDICATES FEW OR NO CLOUDS BELOW 12,000 FEET WITH NO
      SIGNIFICANT WEATHER AND/OR OBSTRUCTIONS TO VISIBILITY.
      SKY/WX - SKY CONDITION AND SIGNIFICANT WEATHER.
      TMP - AIR TEMPERATURE.    DP   - DEWPOINT TEMPERATURE.
      RH  - RELATIVE HUMIDITY.  PRES - PRESSURE.
      HX  - HEAT INDEX.         WCI  - WIND CHILL INDEX.

*  THESE STATIONS ARE NOT NWS OR FAA STATIONS AND ARE NOT UNDER
   NWS QUALITY CONTROL.

LAZ040-048-061>063-065-066-069-221200-
SOUTHEAST LOUISIANA

CITY           SKY/WX    TMP DP  RH WIND       PRES   REMARKS
N.O. INTL ARPT TSTM      76  75  97 E7        30.02R
N.O. LAKEFRONT CLOUDY   N/A N/A N/A MISG      30.03R
N.O. DOWNTOWN* RAIN      77  74  90 VRB3      30.03R FOG
RESERVE*       CLOUDY    78  74  87 CALM      30.04R
SLIDELL        CLOUDY    75  72  90 NE5       30.03S
BATON ROUGE    LGT RAIN  74  73  97 E7        30.01S
BOOTHVILLE     CLOUDY    80  74  81 SE6       30.02R
BELLE CHASSE   NOT AVBL
BOGALUSA*      CLOUDY    72  68  88 N6        30.07R
GALLIANO*      TSTM      77  74  88 SE6       30.00S
NEW ROADS*     DRIZZLE   70  69  96 E5        30.00F
GONZALES*      FAIR      73  73  98 CALM      30.02S
HAMMOND*       TSTM      72  70  94 NE5       30.05R
HOUMA*         CLOUDY   N/A N/A N/A SE13      30.03R THUNDER
PORT FOURCHON* CLOUDY    79  73  83 SE9G16    30.02R

$$

LAZ041-044-053-054-221200-
SOUTHWEST LOUISIANA

CITY           SKY/WX    TMP DP  RH WIND       PRES   REMARKS
LAKE CHARLES   MOCLDY    74  72  93 E5        30.00R
LAFAYETTE      MOCLDY    72  71  97 SE6       30.01S
PATTERSON      CLOUDY    74  72  93 E8        30.03R
SALT POINT       N/A     76  74  93 SE7       29.99R
NEW IBERIA     CLOUDY    73  69  87 SE12      30.03R
CHENAULT AIRPK CLEAR     73  72  94 E5        30.01R

$$

LAZ027-028-221200-
CENTRAL LOUISIANA

CITY           SKY/WX    TMP DP  RH WIND       PRES   REMARKS
FORT POLK      CLOUDY    70  68  93 E5        30.02S
ALEXANDRIA INT CLOUDY    69  66  90 CALM      30.01R
ALEXANDRIA     CLOUDY    68  67  96 SW5       30.02R

$$

LAZ001-002-221200-
NORTHWEST LOUISIANA

CITY           SKY/WX    TMP DP  RH WIND       PRES   REMARKS
SHREVEPORT     LGT RAIN  62  61  96 N13       30.07F
BARKSDALE AFB  LGT RAIN  60  60  99 N8        30.07F
DTN SHREVEPORT LGT RAIN  62  60  93 N12       30.09S

$$

LAZ014-016-221200-
NORTHEAST LOUISIANA

CITY           SKY/WX    TMP DP  RH WIND       PRES   REMARKS
MONROE         LGT RAIN  72  69  90 W6        30.01R
TALLULAH       CLOUDY    69  69 100 CALM      30.00R

$$





USA.gov is the U.S. government's official web portal to all federal, state and local government web resources and services.